This is the latest recevied weather packets stored in our database for station/object AA6HF. If no packets are shown the sender has not sent any weather packets the latest 10 day(s).
| Time | Temp. | Humidity | Pressure | Rain* | Wind** | Luminosity | Snow |
|---|---|---|---|---|---|---|---|
| 1777241780 | 25° C | 26% | 1008.5 hPa | 0 mm | - | - | - |
| 1777241480 | 24.44° C | 26% | 1008.5 hPa | 0 mm | - | - | - |
| 1777241180 | 25° C | 26% | 1008.5 hPa | 0 mm | - | - | - |
| 1777240880 | 25° C | 26% | 1008.4 hPa | 0 mm | - | - | - |
| 1777240580 | 25° C | 24% | 1008.7 hPa | 0 mm | - | - | - |
| 1777240280 | 25° C | 26% | 1008.6 hPa | 0 mm | - | - | - |
| 1777239980 | 24.44° C | 26% | 1008.7 hPa | 0 mm | - | - | - |
| 1777239680 | 25° C | 26% | 1008.9 hPa | 0 mm | - | - | - |
| 1777239380 | 24.44° C | 27% | 1008.9 hPa | 0 mm | - | - | - |
| 1777239080 | 23.89° C | 27% | 1008.9 hPa | 0 mm | - | - | - |
| 1777238780 | 24.44° C | 27% | 1008.9 hPa | 0 mm | - | - | - |
| 1777238480 | 25° C | 27% | 1009 hPa | 0 mm | - | - | - |
| 1777238180 | 24.44° C | 27% | 1009.1 hPa | 0 mm | - | - | - |
| 1777237880 | 24.44° C | 27% | 1009 hPa | 0 mm | - | - | - |
| 1777237580 | 25° C | 28% | 1009.2 hPa | 0 mm | - | - | - |
| 1777237280 | 24.44° C | 28% | 1009.3 hPa | 0 mm | - | - | - |
| 1777236980 | 24.44° C | 29% | 1009.3 hPa | 0 mm | - | - | - |
| 1777236680 | 23.89° C | 29% | 1009.3 hPa | 0 mm | - | - | - |
| 1777236380 | 23.89° C | 29% | 1009.4 hPa | 0 mm | - | - | - |
| 1777236080 | 23.89° C | 29% | 1009.3 hPa | 0 mm | - | - | - |
| 1777235780 | 23.89° C | 29% | 1009.3 hPa | 0 mm | - | - | - |
| 1777235480 | 23.33° C | 31% | 1009.3 hPa | 0 mm | - | - | - |
| 1777235180 | 23.33° C | 31% | 1009.3 hPa | 0 mm | - | - | - |
| 1777234880 | 23.33° C | 30% | 1009.6 hPa | 0 mm | - | - | - |
| 1777234580 | 23.89° C | 30% | 1009.4 hPa | 0 mm | - | - | - |
* Rain latest hour (hover to see other rain measurements)
** Current wind speed in m/s (hover to see current wind gust speed)